Regional Weather Roundup
Issued by NWS Albany, NY

Home | Current Version | Previous Version | Text Only | Print | Product List | Glossary On
Versions: 1 2 3 4 5 6 7 8 9 10 11 12 13 14 15 16 17 18 19 20 21 22 23 24 25 26 27
000
ASUS41 KALY 200710
RWRALY

NEW YORK STATE HOURLY WEATHER ROUNDUP
NATIONAL WEATHER SERVICE ALBANY NY
300 AM EDT FRI OCT 20 2017

NOTE: "FAIR" INDICATES FEW OR NO CLOUDS BELOW 12,000 FEET WITH NO
SIGNIFICANT WEATHER AND/OR NO OBSTRUCTIONS TO VISIBILITY.

NYZ032-033-038>043-046>054-057>066-NYZ062>081-082-084-200800-
EAST


CITY           SKY/WX    TMP DP  RH WIND       PRES   REMARKS
ALBANY         MOCLDY    59  46  62 W13       30.06R
GLENS FALLS    FAIR      58  41  53 W6        30.02R
POUGHKEEPSIE   FAIR      50  44  80 CALM      30.05S
NEWBURGH       PTCLDY    54  48  82 W7        30.08F
MONTGOMERY     FAIR      46  44  93 SW9       30.07S
WHITE PLAINS   FAIR      57  46  66 W5        30.06F
ISLIP          FAIR      55  50  83 W6        30.06S
NEW YORK CITY  FAIR      64  47  53 W12       30.06F
CENTRAL PARK   FAIR      60  47  61 MISG      30.10S
$$

NYZ005>009-017-018-044>046-055-056-200800-
CENTRAL


CITY           SKY/WX    TMP DP  RH WIND       PRES   REMARKS
FULTON         FAIR      51  45  79 CALM      30.11R
SYRACUSE       FAIR      50  41  71 W8        30.11R
ROME           FAIR      49  46  90 NW7       30.11R
ELMIRA         FAIR      46  44  93 CALM      30.14R
BINGHAMTON     FAIR      51  44  77 NW6       30.12R
MONTICELLO     FAIR      50  43  77 NW8       30.11S
$$

NYZ026>034-041>043-087-200800-
NORTH


CITY           SKY/WX    TMP DP  RH WIND       PRES   REMARKS
WATERTOWN      FAIR      51  41  68 W5        30.08R
FORT DRUM      NOT AVBL
OGDENSBURG     FAIR      47  39  74 S5        30.03S
MASSENA        FAIR      49  38  65 SW6       30.02R
SARANAC LAKE   FAIR      47  34  60 W6        30.02R
PLATTSBURGH    FAIR      55  34  45 SW3       30.00S
$$

NYZ001>004-010>016-019>021-085-200800-
WEST


CITY           SKY/WX    TMP DP  RH WIND       PRES   REMARKS
NIAGARA FALLS    N/A     47  37  68 CALM      30.14R
BUFFALO        MOCLDY    48  39  71 S6        30.14R
DUNKIRK        FAIR      50  47  89 SW5       30.16R
JAMESTOWN      FAIR      50  48  93 W6        30.18S FOG
WELLSVILLE     FAIR      49  40  71 W10       30.17R
ROCHESTER      FAIR      45  42  89 W3        30.13R
$$

             KEY
       WCI = WIND CHILL INDEX
       VSB = VISIBILITY
       HX  = HEAT INDEX
$$




USA.gov is the U.S. government's official web portal to all federal, state and local government web resources and services.